Location: ??????
(36.0418°N, 43.6351°E)
Time: 14:14:46
(UTC+00:00)

Daily predictions for brighter satellites

Satellite Brightness Start Highest point End
(mag) Time Altitude Azimuth Time Altitude Azimuth Time Altitude Azimuth
Cosmos 1939 Rocket 4.0 15:21:46 10° ESE 15:24:45 22° ENE 15:27:45 10° NNE
Cosmos 2074 Rocket 4.0 15:19:32 10° N 15:25:47 75° E 15:31:57 10° S
ISS -2.2 15:26:05 10° WSW 15:29:09 34° NW 15:32:13 10° NNE
USA 116 3.4 15:27:36 10° N 15:31:11 86° WNW 15:34:26 10° SSW
Orbus 7S? 3.8 15:28:19 10° SW 15:31:43 81° SE 15:39:07 10° NE
Okean 1 Rocket 3.0 15:31:30 10° S 15:35:48 77° E 15:40:10 10° N
Cosmos 1544 3.1 15:33:03 10° S 15:36:38 83° W 15:40:15 10° N
Cosmos 1025 Rocket 3.3 15:36:58 10° NNW 15:41:13 71° W 15:45:27 10° S
Cosmos 2219 Rocket 2.3 15:37:11 10° NNW 15:42:48 86° WSW 15:48:24 10° SSE
SL-16 R/B 3.9 15:43:20 10° NNE 15:46:30 15° NE 15:48:55 12° E
NOSS 0 Rocket 4.0 15:40:34 10° NNW 15:46:42 59° ENE 15:52:49 10° SE
Lacrosse 5 3.3 15:44:02 10° SSE 15:47:25 18° ESE 15:49:49 13° E
NOAA 11 4.3 15:46:33 10° SSE 15:51:53 55° ENE 15:57:14 10° N
Cosmos 2154 Rocket 3.9 15:48:57 10° N 15:55:10 76° E 16:01:23 10° S
Envisat 4.4 15:50:36 10° S 15:55:24 42° W 16:00:13 10° NNW
Cosmos 2082 4.1 15:51:15 10° S 15:56:33 40° ESE 16:01:51 10° NE
Cosmos 1371 Rocket 4.1 15:51:23 10° SSW 15:56:41 89° WNW 16:02:04 10° NNE
Cosmos 1707 2.7 15:53:56 10° N 15:57:49 60° E 16:01:40 10° SSE
IRS-1A Rocket 4.4 15:55:44 10° SSE 16:01:17 56° ENE 16:06:45 10° N
YAOGAN 1 3.6 15:59:43 10° S 16:03:54 49° W 16:08:06 10° NNW
COSMOS 2428 3.6 16:01:19 10° NNW 16:06:48 51° WSW 16:12:16 10° S
Cosmos 1452 Rocket 4.2 16:02:49 10° SSE 16:07:22 31° E 16:11:57 10° NE
Meteor 1-4 Rocket 3.0 16:05:20 10° N 16:08:35 35° ENE 16:09:44 27° ESE
Cosmos 2227 Rocket 2.2 16:04:49 10° SSW 16:10:27 89° ESE 16:16:09 10° NNE
GP-B 3.8 16:07:32 10° N 16:11:54 56° W 16:16:13 10° SSW
Cosmos 1892 Rocket 3.7 16:10:16 10° N 16:14:34 48° E 16:17:49 16° SSE
Cosmos 2219 4.4 16:12:13 10° SW 16:17:42 45° WNW 16:23:13 10° N
FREGAT/IRIS 2.8 16:20:26 43° NE 16:20:26 43° NE 16:22:47 10° N
ADEOS Rocket 3.9 16:13:05 10° NNE 16:20:08 39° E 16:27:15 10° SSE
Cosmos 2297 Rocket 2.5 16:14:52 10° SSW 16:20:29 71° WNW 16:26:09 10° NNE
SL-4 R/B 3.2 16:18:03 10° S 16:20:20 23° SSE 16:20:20 23° SSE
NOSS 3-4 (A) 4.0 16:15:26 10° NW 16:22:40 80° WSW 16:30:33 10° SSE
NOSS 3-4 (C) 4.0 16:15:32 10° NW 16:22:46 81° WSW 16:30:38 10° SSE
CZ-2D R/B 4.1 16:20:22 10° S 16:24:03 50° W 16:27:46 10° NNW
SJ-11-01 4.5 16:21:43 23° SE 16:24:25 50° ENE 16:29:00 10° N
CZ-2C R/B 3.5 16:21:03 10° NNE 16:25:28 68° E 16:29:52 10° S
Cosmos 1190 Rocket 3.9 16:22:53 10° NNW 16:28:11 81° ENE 16:32:16 17° SSE
Cosmos 614 Rocket 3.9 16:23:32 10° NNW 16:28:45 89° ENE 16:33:06 15° SSE
H-2A R/B 2.7 16:28:38 30° ENE 16:28:57 30° ENE 16:33:19 10° N
SJ-6B 3.3 16:29:51 40° E 16:30:02 41° ENE 16:33:52 10° N
Cosmos 1766 3.3 16:32:25 48° SE 16:32:58 53° E 16:36:48 10° NNE
CZ-4 R/B 4.5 16:32:57 10° SW 16:34:58 14° W 16:36:59 10° WNW
Ariane Rocket 3.7 16:32:43 10° S 16:37:39 54° W 16:42:38 10° NNW
Okean 1-7 Rocket 3.6 16:35:48 10° N 16:40:17 80° W 16:43:54 16° S
In-Cosmos 22 4.2 16:35:22 10° N 16:40:49 83° W 16:46:22 10° S
Cosmos 405 Rocket 4.3 16:42:42 10° SW 16:46:04 34° WNW 16:49:29 10° N
MOS 1 4.4 16:40:27 10° S 16:46:08 79° WSW 16:51:51 10° NNW
Cosmos 1544 Rocket 3.6 16:42:49 10° S 16:47:17 82° W 16:51:46 10° N
Cosmos 1455 Rocket 3.4 16:42:55 10° SSW 16:47:18 64° W 16:51:44 10° N
GENESIS II 4.1 16:46:34 10° NNW 16:50:40 85° WSW 16:50:47 83° S
ASTEX 1 4.3 16:47:28 10° N 16:52:10 48° W 16:56:51 10° SSW
Lacrosse 5 rocket 4.0 16:51:11 10° WNW 16:53:10 14° NW 16:55:11 10° N
Cosmos 407 Rocket 4.4 16:50:18 10° NNW 16:55:12 47° WSW 16:59:25 14° S
Cosmos 1420 Rocket 4.3 16:51:47 10° SSW 16:57:03 69° WNW 17:02:22 10° NNE
Cosmos 2237 Rocket 2.9 16:51:52 10° NNW 16:57:23 52° WSW 17:01:36 17° S
Cosmos 1674 4.1 16:54:33 10° N 16:56:23 27° N 16:56:23 27° N
USA 186 3.1 17:01:27 41° NW 17:01:27 41° NW 17:03:56 10° NNW
ATLAS CENTAUR R/B 3.4 16:57:30 10° SSW 16:59:10 21° S 16:59:10 21° S
DELTA 2 R/B (1) 3.9 16:57:27 10° W 17:03:01 60° N 17:04:04 50° NE
Cosmos 1437 Rocket 3.9 17:02:00 10° N 17:04:18 35° NNW 17:04:18 35° NNW
Cosmos 1140 Rocket 4.0 17:03:39 10° NNW 17:08:40 55° WSW 17:10:32 35° SSW
Meteor 1-24 Rocket 3.7 17:05:21 10° N 17:11:16 83° E 17:12:09 66° SSE
Cosmos 1954 Rocket 4.3 17:14:00 10° NNW 17:19:07 61° WSW 17:19:40 57° SW
GEOS 3 Rocket 3.7 17:24:46 73° WNW 17:24:46 73° WNW 17:29:27 10° NW
SL-08 R/B 4.4 17:19:31 10° N 17:26:00 88° W 17:26:37 75° S
Lacrosse 5 2.5 17:24:55 10° SW 17:29:08 53° W 17:29:08 53° W
SL-16 R/B 2.3 17:25:32 10° NNW 17:30:49 72° WNW 17:30:49 72° WNW
ARGOS 3.6 17:39:05 57° W 17:39:05 57° W 17:43:58 10° NNW
FALCON 9 R/B 4.4 16:52:44 10° W 17:42:37 72° SSW 17:47:22 52° SE
Resurs 01 Rocket 3.9 17:48:55 19° NNW 17:48:55 19° NNW 17:50:13 10° NNW
CZ-2C R/B 4.2 17:49:48 40° NNW 17:49:48 40° NNW 17:53:19 10° NNW
H-2A R/B 4.0 18:09:16 24° WNW 18:09:16 24° WNW 18:12:28 10° NW
